This is the latest recevied weather packets stored in our database for station/object M0TUM-1. If no packets are shown the sender has not sent any weather packets the latest 10 day(s).
| Time | Temp. | Humidity | Pressure | Rain* | Wind** | Luminosity | Snow |
|---|---|---|---|---|---|---|---|
| 1778160031 | 14.44° C | 57% | 1016.9 hPa | 0 mm | - | 223 W/m² | - |
| 1778159728 | 15.56° C | 55% | 1016.7 hPa | 0 mm | - | 259 W/m² | - |
| 1778159425 | 15° C | 56% | 1016.7 hPa | 0 mm | - | 681 W/m² | - |
| 1778159122 | 14.44° C | 56% | 1016.8 hPa | 0 mm | - | 291 W/m² | - |
| 1778158820 | 14.44° C | 58% | 1016.8 hPa | 0 mm | - | 387 W/m² | - |
| 1778158519 | 14.44° C | 57% | 1016.7 hPa | 0 mm | - | 259 W/m² | - |
| 1778158216 | 14.44° C | 58% | 1016.8 hPa | 0 mm | - | 779 W/m² | - |
| 1778157912 | 13.89° C | 59% | 1016.8 hPa | 0 mm | - | 365 W/m² | - |
| 1778157610 | 13.33° C | 60% | 1016.7 hPa | 0 mm | - | 247 W/m² | - |
| 1778157308 | 13.89° C | 61% | 1016.8 hPa | 0 mm | - | 187 W/m² | - |
| 1778157004 | 13.89° C | 59% | 1016.9 hPa | 0 mm | - | 244 W/m² | - |
| 1778156699 | 13.89° C | 58% | 1016.9 hPa | 0 mm | - | 193 W/m² | - |
| 1778156395 | 14.44° C | 56% | 1017 hPa | 0 mm | - | 173 W/m² | - |
| 1778156091 | 14.44° C | 57% | 1016.9 hPa | 0 mm | - | 222 W/m² | - |
| 1778155787 | 14.44° C | 57% | 1016.9 hPa | 0 mm | - | 348 W/m² | - |
| 1778155484 | 14.44° C | 57% | 1016.9 hPa | 0 mm | - | 704 W/m² | - |
| 1778155181 | 15° C | 57% | 1016.9 hPa | 0 mm | - | 393 W/m² | - |
| 1778154877 | 13.89° C | 60% | 1017 hPa | 0 mm | - | 815 W/m² | - |
| 1778154573 | 13.33° C | 62% | 1017.2 hPa | 0 mm | - | 385 W/m² | - |
| 1778154269 | 12.78° C | 63% | 1017.3 hPa | 0 mm | - | 310 W/m² | - |
| 1778153967 | 11.67° C | 65% | 1017.1 hPa | 0 mm | - | 312 W/m² | - |
| 1778153663 | 13.33° C | 63% | 1017.2 hPa | 0 mm | - | 301 W/m² | - |
| 1778153361 | 12.78° C | 63% | 1017.1 hPa | 0 mm | - | 302 W/m² | - |
| 1778153058 | 12.22° C | 64% | 1017.2 hPa | 0 mm | - | 346 W/m² | - |
| 1778152755 | 12.78° C | 63% | 1017.1 hPa | 0 mm | - | 425 W/m² | - |
* Rain latest hour (hover to see other rain measurements)
** Current wind speed in m/s (hover to see current wind gust speed)